This is the latest recevied weather packets stored in our database for station/object W4OTS. If no packets are shown the sender has not sent any weather packets the latest 1 day(s).
| Time | Temp. | Humidity | Pressure | Rain* | Wind** | Luminosity | Snow |
|---|---|---|---|---|---|---|---|
| 1777995479 | 22.22° C | 56% | 1019 hPa | 0 mm | 0.45 m/s, 250° | 662 W/m² | - |
| 1777995176 | 21.67° C | 58% | 1018.9 hPa | 0 mm | 0.89 m/s, 226° | 693 W/m² | - |
| 1777994874 | 21.67° C | 58% | 1019 hPa | 0 mm | 0.45 m/s, 240° | 673 W/m² | - |
| 1777994570 | 22.22° C | 57% | 1018.7 hPa | 0 mm | 1.34 m/s, 198° | 696 W/m² | - |
| 1777994269 | 21.67° C | 58% | 1018.8 hPa | 0 mm | 0.45 m/s, 245° | 740 W/m² | - |
| 1777993968 | 21.67° C | 59% | 1018.6 hPa | 0 mm | 0.89 m/s, 206° | 738 W/m² | - |
| 1777993665 | 21.67° C | 59% | 1018.8 hPa | 0 mm | 0.89 m/s, 208° | 783 W/m² | - |
| 1777993362 | 21.67° C | 57% | 1018.7 hPa | 0 mm | 0.89 m/s, 255° | 747 W/m² | - |
| 1777993062 | 21.11° C | 58% | 1018.7 hPa | 0 mm | 0.89 m/s, 221° | 774 W/m² | - |
| 1777992760 | 20.56° C | 58% | 1018.8 hPa | 0 mm | 0.45 m/s, 241° | 735 W/m² | - |
| 1777992457 | 20.56° C | 59% | 1018.5 hPa | 0 mm | 1.34 m/s, 218° | 752 W/m² | - |
| 1777992156 | 20.56° C | 61% | 1018.7 hPa | 0 mm | 0.45 m/s, 202° | 771 W/m² | - |
| 1777991852 | 20° C | 61% | 1018.7 hPa | 0 mm | 1.34 m/s, 199° | 739 W/m² | - |
| 1777991550 | 20° C | 61% | 1018.6 hPa | 0 mm | 1.79 m/s, 178° | 727 W/m² | - |
| 1777991255 | 20° C | 61% | 1018.7 hPa | 0 mm | 1.79 m/s, 217° | 720 W/m² | - |
| 1777990944 | 20° C | 65% | 1018.7 hPa | 0 mm | 0.45 m/s, 217° | 639 W/m² | - |
| 1777990642 | 19.44° C | 63% | 1018.7 hPa | 0 mm | 1.34 m/s, 178° | 537 W/m² | - |
| 1777990338 | 19.44° C | 61% | 1018.7 hPa | 0 mm | 0.45 m/s, 225° | 565 W/m² | - |
| 1777990034 | 19.44° C | 63% | 1018.5 hPa | 0 mm | 0.45 m/s, 240° | 598 W/m² | - |
| 1777989732 | 19.44° C | 62% | 1018.4 hPa | 0 mm | 1.79 m/s, 163° | 603 W/m² | - |
| 1777989428 | 18.89° C | 62% | 1018.7 hPa | 0 mm | 0.45 m/s, 219° | 655 W/m² | - |
| 1777989124 | 19.44° C | 63% | 1018.4 hPa | 0 mm | 0.89 m/s, 231° | 604 W/m² | - |
| 1777988820 | 18.89° C | 65% | 1018.6 hPa | 0 mm | 0.89 m/s, 206° | 550 W/m² | - |
| 1777988518 | 18.89° C | 63% | 1018.5 hPa | 0 mm | 0.45 m/s, 211° | 479 W/m² | - |
| 1777988215 | 18.89° C | 65% | 1018.4 hPa | 0 mm | 0.45 m/s, 203° | 530 W/m² | - |
* Rain latest hour (hover to see other rain measurements)
** Current wind speed in m/s (hover to see current wind gust speed)